📊 Raw Sensor Data

Showing records 32901 to 32925 of 84,739 total

ID Distance (ft) Battery V Battery A Int Temp (°F) Int Humid (%) Ext Temp (°F) Solar V RSSI SNR Time Stamp
51851 14.6 4.00 -5 58 44 59 0.00 -72 8 09/13/2025 04:00 AM
51850 14.7 4.00 -5 58 44 59 0.00 -71 8 09/13/2025 03:45 AM
51849 14.6 4.01 -5 57 44 59 0.10 -70 8 09/13/2025 03:30 AM
51848 14.6 3.95 -5 57 44 59 0.00 -70 8 09/13/2025 03:15 AM
51847 14.6 3.95 -5 57 44 59 0.00 -72 8 09/13/2025 03:00 AM
51846 14.6 3.95 -5 57 44 59 0.10 -72 7 09/13/2025 02:45 AM
51845 14.6 4.01 -5 57 44 58 0.10 -70 8 09/13/2025 02:30 AM
51844 14.6 4.01 -5 57 45 58 0.00 -70 8 09/13/2025 02:15 AM
51843 14.6 3.95 -5 57 45 58 0.00 -70 8 09/13/2025 02:00 AM
51842 14.6 3.95 -5 58 45 58 0.00 -70 8 09/13/2025 01:45 AM
51841 14.6 4.01 -5 58 45 59 0.00 -69 8 09/13/2025 01:30 AM
51840 14.6 4.01 -5 59 45 59 0.00 -69 8 09/13/2025 01:15 AM
51839 14.6 4.01 -5 59 45 60 0.00 -70 8 09/13/2025 01:00 AM
51838 14.6 4.01 -5 60 45 61 0.10 -70 8 09/13/2025 12:45 AM
51837 14.6 3.96 -5 61 45 62 0.10 -71 8 09/13/2025 12:30 AM
51836 14.6 3.96 -5 61 45 62 0.00 -71 8 09/13/2025 12:15 AM
51835 14.6 3.96 -5 61 45 62 0.00 -71 7 09/13/2025 12:00 AM
51834 14.6 3.96 -5 62 45 63 0.10 -71 7 09/12/2025 11:45 PM
51833 14.6 4.02 -5 62 45 63 0.00 -71 7 09/12/2025 11:30 PM
51832 14.6 4.02 -5 63 45 63 0.00 -73 7 09/12/2025 11:15 PM
51831 14.6 3.96 -5 63 46 64 0.10 -72 7 09/12/2025 11:00 PM
51830 14.6 3.96 -5 63 46 64 0.00 -72 8 09/12/2025 10:45 PM
51829 14.6 3.96 -5 64 46 65 0.00 -76 8 09/12/2025 10:30 PM
51828 14.6 3.97 -5 64 46 65 0.00 -73 8 09/12/2025 10:15 PM
51827 14.6 4.02 -5 65 46 65 0.00 -71 8 09/12/2025 10:00 PM